Location: Chicoutimi
(48.4330°N, 71.0670°W)
Time: 16:40:55
(UTC-05:00)

ISS - Visible Passes

Search period start: 07 February 2016 00:00
Search period end: 17 February 2016 00:00
Orbit: 399 x 408 km, 51.6° (Epoch: 07 February)

Date Brightness Start Highest point End Pass type
(mag) Time Alt. Az. Time Alt. Az. Time Alt. Az.
07 Feb -3.3 18:06:18 10° WSW 18:09:33 76° NNW 18:11:17 25° ENE visible
07 Feb -0.3 19:43:06 10° WNW 19:43:55 16° WNW 19:43:55 16° WNW visible
08 Feb -2.7 18:50:26 10° W 18:53:31 46° N 18:53:31 46° N visible
09 Feb -2.9 17:57:43 10° W 18:00:55 54° N 18:03:05 18° ENE visible
09 Feb -0.7 19:34:30 10° WNW 19:35:43 20° WNW 19:35:43 20° WNW visible
10 Feb -2.8 18:41:50 10° WNW 18:44:59 45° N 18:45:16 44° NNE visible
11 Feb -2.7 17:49:07 10° WNW 17:52:16 45° N 17:54:49 14° ENE visible
11 Feb -1.3 19:25:46 10° WNW 19:27:28 28° WNW 19:27:28 28° WNW visible
12 Feb -3.0 18:33:07 10° WNW 18:36:20 52° N 18:37:01 42° NE visible
12 Feb 0.3 20:09:38 10° WNW 20:09:40 10° WNW 20:09:40 10° WNW visible
13 Feb -2.8 17:40:27 10° WNW 17:43:36 46° N 17:46:37 11° E visible
13 Feb -2.1 19:16:58 10° WNW 19:19:15 42° WNW 19:19:15 42° WNW visible
14 Feb -3.4 18:24:19 10° WNW 18:27:34 73° NNE 18:28:53 33° E visible
14 Feb 0.0 20:01:01 10° W 20:01:32 13° W 20:01:32 13° W visible
15 Feb -3.1 17:31:38 10° WNW 17:34:51 56° NNE 17:38:03 10° E visible
15 Feb -2.4 19:08:10 10° WNW 19:11:13 43° SW 19:11:13 43° SW visible
16 Feb -3.1 18:15:26 10° WNW 18:18:41 69° SSW 18:21:00 17° SE visible
16 Feb -0.2 19:52:54 10° WSW 19:53:39 12° WSW 19:53:39 12° WSW visible
